Location: Newark
(50.8489°N, 24.3224°E)
Time: 06:26:54
(UTC+00:00)

Envisat - Visible Passes

Search period start: 18 November 2019 00:00
Search period end: 28 November 2019 00:00
Orbit: 764 x 766 km, 98.1° (Epoch: 17 November)

Date Brightness Start Highest point End Pass type
(mag) Time Alt. Az. Time Alt. Az. Time Alt. Az.
18 Nov 4.2 04:56:30 10° NNE 05:01:27 47° E 05:06:19 10° S visible
18 Nov 3.0 16:15:56 10° SSE 16:21:01 83° WSW 16:26:09 10° NNW visible
18 Nov 6.0 17:58:26 10° WSW 18:00:51 13° W 18:03:17 10° WNW visible
19 Nov 5.5 04:20:15 10° NE 04:24:23 24° E 04:28:29 10° SE visible
19 Nov 3.1 15:39:24 10° SE 15:44:18 51° ENE 15:49:15 10° N visible
19 Nov 5.1 17:19:23 10° SSW 17:23:37 26° W 17:27:53 10° NW visible
20 Nov 6.2 03:45:07 10° ENE 03:47:07 12° E 03:49:06 10° ESE visible
20 Nov 3.9 15:03:32 10° ESE 15:07:48 28° ENE 15:12:05 10° N visible
20 Nov 3.8 16:41:38 10° S 16:46:35 51° W 16:51:33 10° NNW visible
21 Nov 4.7 04:45:20 10° NNE 04:50:06 39° E 04:54:50 10° SSE visible
21 Nov 2.9 16:04:40 10° SSE 16:09:45 82° ENE 16:14:51 10° NNW visible
21 Nov 5.8 17:46:15 10° SW 17:49:25 16° W 17:52:37 10° NW visible
22 Nov 5.8 04:09:16 10° NE 04:12:59 20° E 04:16:40 10° SE visible
22 Nov 3.3 15:28:20 10° SE 15:33:06 42° ENE 15:37:53 10° N visible
22 Nov 4.8 17:07:43 10° SSW 17:12:14 32° W 17:16:47 10° NNW visible
23 Nov 3.6 05:10:39 10° NNE 05:15:43 63° ESE 05:20:45 10° S visible
23 Nov 3.4 16:30:14 10° S 16:35:16 63° WSW 16:40:20 10° NNW visible
24 Nov 5.0 04:34:11 10° NNE 04:38:45 32° E 04:43:15 10° SSE visible
24 Nov 2.9 15:53:27 10° SSE 15:58:28 67° ENE 16:03:32 10° N visible
24 Nov 5.5 17:34:18 10° SW 17:38:00 20° W 17:41:43 10° NW visible
25 Nov 6.0 03:58:23 10° NE 04:01:34 16° E 04:04:43 10° SE visible
25 Nov 3.5 15:17:18 10° SE 15:21:53 35° ENE 15:26:29 10° N visible
25 Nov 4.4 16:56:09 10° SSW 17:00:53 39° W 17:05:39 10° NNW visible
26 Nov 4.0 04:59:25 10° NNE 05:04:24 51° E 05:09:21 10° S visible
26 Nov 3.1 16:18:53 10° S 16:23:58 77° WSW 16:29:05 10° NNW visible
26 Nov 6.1 18:01:52 10° WSW 18:03:52 12° W 18:05:53 10° WNW visible
27 Nov 5.4 04:23:06 10° NE 04:27:22 26° E 04:31:35 10° SSE visible
27 Nov 3.1 15:42:17 10° SE 15:47:14 55° ENE 15:52:13 10° N visible
27 Nov 5.2 17:22:30 10° SW 17:26:36 24° W 17:30:44 10° NW visible
